Location: ????????
(38.4362°N, 22.8767°E)
Time: 04:12:48
(UTC+00:00)

GEOS 3 Rocket - Pass Details

Date: 23 April 2024
Orbit: 780 x 836 km, 115.0° (Epoch: 20 May)

Event Time Altitude Azimuth Distance (km) Brightness Sun altitude
Rises 01:52:54 0° 160° (SSE) 3,367 6.7 -19.8°
Reaches altitude 10° 01:55:18 10° 166° (SSE) 2,437 5.9 -19.5°
Maximum altitude 02:00:24 47° 240° (WSW) 1,092 3.8 -18.6°
Drops below altitude 10° 02:05:31 10° 314° (NW) 2,442 6.0 -17.8°
Sets 02:07:55 0° 320° (NW) 3,374 6.8 -17.4°
